Weather History for Plymouth, MA

Change the Weather History Date:

Thursday, February 28, 2013

  Actual Average Record
Temperature  
Mean Temperature 40 °F -  
Max Temperature 46 °F 42 °F 65 °F (1976)
Min Temperature 33 °F 19 °F -1 °F (1990)
Degree Days  
Heating Degree Days 26    
Moisture  
Dew Point 36 °F    
Average Humidity 89    
Maximum Humidity 100    
Minimum Humidity 66    
Precipitation  
Precipitation 0.00 in - - ()
Sea Level Pressure  
Sea Level Pressure 29.57 in    
Wind  
Wind Speed 6 mph (WSW)    
Max Wind Speed 10 mph    
Max Gust Speed -    
Visibility 7 miles    
Events      
Averages and records for this station are not official NWS values.
T = Trace of Precipitation, MM = Missing Value Source: NWS Daily Summary

Daily Weather History Graph

Daily Weather History Graph

Search for Another Location

Airport:

Trip Planner

Search our weather history database for the weather conditions in past years. The results will help you decide how hot, cold, wet, or windy it might be!

Date:

Astronomy

Feb. 28, 2013 Rise Set
Actual Time 6:19 AM EST 5:32 PM EST
Civil Twilight 5:51 AM EST 6:00 PM EST
Nautical Twilight 5:18 AM EST 6:32 PM EST
Astronomical Twilight 4:46 AM EST 7:04 PM EST
Moon 9:00 PM EST 7:23 AM EST
Length of Visible Light 12h 09m
Length of Day
11h 13m
Waning Gibbous, 91% of the Moon is Illuminated
Feb 28
Waning Gibbous
Mar 4
Last Quarter
Mar 11
New
Mar 19
First Quarter
Mar 27
Full

Hourly Weather History & Observations

Time (EST) Temp. Windchill Dew Point Humidity Pressure Visibility Wind Dir Wind Speed Gust Speed Precip Events Conditions
12:20 AM 42.8 °F 37.0 °F 39.2 °F 87% 29.56 in 2.5 mi WSW 10.4 mph - N/A   Overcast
12:33 AM 42.8 °F 38.6 °F 39.2 °F 87% 29.56 in 1.8 mi WSW 6.9 mph - N/A   Overcast
12:42 AM 41.0 °F 35.8 °F 39.2 °F 93% 29.56 in 2.5 mi West 8.1 mph - N/A   Overcast
12:52 AM 41.0 °F 36.4 °F 39.9 °F 96% 29.57 in 2.5 mi West 6.9 mph - N/A   Overcast
1:06 AM 41.0 °F 38.0 °F 39.2 °F 93% 29.57 in 1.5 mi SW 4.6 mph - N/A   Overcast
1:16 AM 41.0 °F 37.1 °F 39.2 °F 93% 29.57 in 3.0 mi WSW 5.8 mph - N/A   Overcast
1:22 AM 41.0 °F 35.8 °F 39.2 °F 93% 29.57 in 1.8 mi SW 8.1 mph - N/A   Overcast
1:39 AM 39.2 °F 33.6 °F 39.2 °F 100% 29.57 in 3.0 mi WSW 8.1 mph - N/A   Overcast
1:52 AM 39.9 °F 34.5 °F 39.0 °F 97% 29.58 in 2.5 mi WSW 8.1 mph - N/A   Overcast
2:06 AM 39.2 °F 34.2 °F 39.2 °F 100% 29.58 in 3.0 mi WSW 6.9 mph - N/A   Overcast
2:31 AM 39.2 °F 33.0 °F 37.4 °F 93% 29.58 in 6.0 mi WSW 9.2 mph - N/A   Overcast
3:32 AM 37.4 °F 32.1 °F 35.6 °F 93% 29.59 in 2.0 mi West 6.9 mph - N/A   Overcast
3:52 AM 37.9 °F 35.5 °F 36.0 °F 93% 29.59 in 2.0 mi WSW 3.5 mph - N/A   Overcast
4:07 AM 37.4 °F 32.1 °F 35.6 °F 93% 29.60 in 5.0 mi SW 6.9 mph - N/A   Overcast
4:52 AM 37.0 °F 33.3 °F 35.1 °F 93% 29.61 in 10.0 mi West 4.6 mph - N/A   Overcast
5:52 AM 36.0 °F 29.6 °F 33.1 °F 89% 29.63 in 10.0 mi West 8.1 mph - N/A   Overcast
6:52 AM 36.0 °F 30.3 °F 34.0 °F 93% 29.62 in 7.0 mi WSW 6.9 mph - N/A   Overcast
7:52 AM 36.0 °F 30.3 °F 34.0 °F 93% 29.63 in 10.0 mi West 6.9 mph - N/A   Overcast
8:52 AM 37.0 °F 34.5 °F 35.1 °F 93% 29.65 in 10.0 mi WNW 3.5 mph - N/A   Overcast
9:52 AM 37.0 °F 34.5 °F 34.0 °F 89% 29.63 in 10.0 mi WNW 3.5 mph - N/A   Overcast
10:31 AM 37.4 °F 33.8 °F 35.6 °F 93% 29.62 in 10.0 mi West 4.6 mph - N/A   Overcast
10:52 AM 37.9 °F 35.5 °F 35.1 °F 89% 29.63 in 10.0 mi WSW 3.5 mph - N/A   Overcast
11:52 AM 39.9 °F - 35.1 °F 83% 29.61 in 10.0 mi Calm Calm - N/A   Overcast
12:30 PM 39.2 °F 37.0 °F 37.4 °F 93% 29.59 in 10.0 mi WSW 3.5 mph - N/A   Overcast
12:52 PM 41.0 °F - 36.0 °F 82% 29.58 in 10.0 mi Calm Calm - N/A   Overcast
1:08 PM 42.8 °F 41.1 °F 35.6 °F 76% 29.57 in 10.0 mi West 3.5 mph - N/A   Overcast
1:52 PM 43.0 °F - 37.9 °F 82% 29.55 in 10.0 mi Calm Calm - N/A   Overcast
2:52 PM 46.0 °F 43.9 °F 35.1 °F 66% 29.54 in 10.0 mi NW 4.6 mph - N/A   Partly Cloudy
3:52 PM 42.1 °F 39.2 °F 35.1 °F 76% 29.54 in 10.0 mi ENE 4.6 mph - N/A   Overcast
4:52 PM 41.0 °F - 35.1 °F 79% 29.54 in 10.0 mi Calm Calm - N/A   Overcast
5:12 PM 41.0 °F - 35.6 °F 81% 29.54 in 10.0 mi Calm Calm - N/A   Overcast
5:52 PM 41.0 °F - 35.1 °F 79% 29.54 in 10.0 mi Calm Calm - N/A   Overcast
6:16 PM 39.2 °F - 35.6 °F 87% 29.54 in 10.0 mi Calm Calm - N/A   Overcast
6:52 PM 39.0 °F - 35.1 °F 86% 29.54 in 10.0 mi Calm Calm - N/A   Overcast
7:52 PM 37.0 °F - 34.0 °F 89% 29.54 in 9.0 mi Calm Calm - N/A   Overcast
8:52 PM 36.0 °F - 34.0 °F 93% 29.54 in 7.0 mi Calm Calm - N/A   Overcast
9:52 PM 36.0 °F - 33.1 °F 89% 29.53 in 7.0 mi Calm Calm - N/A   Scattered Clouds
10:52 PM 34.0 °F - 32.0 °F 92% 29.52 in 3.0 mi Calm Calm - N/A   Clear
11:34 PM 33.8 °F - 32.0 °F 93% 29.51 in 3.0 mi Calm Calm - N/A   Mostly Cloudy
11:52 PM 35.1 °F - 34.0 °F 96% 29.52 in 5.0 mi Calm Calm - N/A   Overcast